Upstream stations:
Downstream station:
SHEF ID: AMAT2 Canadian Rv nr Amarillo, TX
STATION TYPE:
Regulating: Stage = 13.00, Flow = 87096
STAGE RIV-FLOW WTR-TEMP CONDUCT BAT-LOAD
ft cfs F umho/cm volt
Ccp-Rev Ccp-Rev Ccp-Rev Ccp-Rev Ccp-Rev
(US/Central)
05/19 00:00 0.64 0 72.66 7 12.73
05/19 01:00 0.65 0 71.01 7 12.73
05/19 02:00 0.66 0 69.82 7 12.65
05/19 03:00 0.67 0 68.90 7 12.65
05/19 04:00 0.67 0 68.18 7 12.65
05/19 05:00 0.67 0 67.41 7 12.65
05/19 06:00 0.66 0 66.69 7 12.57
05/19 07:00 0.66 0 66.02 7 12.65
05/19 08:00 0.67 0 65.46 7 12.73
05/19 09:00 0.67 0 65.43 7 12.89
05/19 10:00 0.67 0 65.93 7 13.05
05/19 11:00 0.66 0 67.08 7 13.13
05/19 12:00 0.65 0 68.88 7 13.13
05/19 13:00 0.64 0 71.02 7 13.05
05/19 14:00 0.65 0 73.20 7 12.97
05/19 15:00 0.61 0 74.52 7 12.97
05/19 16:00 0.60 0 75.06 7 12.97
05/19 17:00 0.61 0 74.50 7 12.97
05/19 18:00 0.61 0 73.24 7 12.81
05/19 19:00 0.58 0 72.27 7 12.81
05/19 20:00 0.58 0 70.95 7 12.81
05/19 21:00 0.60 0 69.67 7 12.81
05/19 22:00 0.61 0 68.63 7 12.81
05/19 23:00 0.61 0 67.91 7 12.81